Tracking 31027 objects as of 19-Jul-2025
HD Live streaming from Space Station
objects crossing your sky now

ONEWEB-0324

Track ONEWEB-0324 now!
10-day predictions
ONEWEB-0324 is classified as:


NORAD ID: 49193
Int'l Code: 2021-083H
Perigee: 1,195.6 km
Apogee: 1,198.2 km
Inclination: 87.9 °
Period: 109.2 minutes
Semi major axis: 7567 km
RCS: Unknown
Launch date: September 14, 2021
Source: United Kingdom (UK)
Launch site: TYURATAM MISSILE AND SPACE COMPLEX (TTMTR)
Your satellite tracking list
SPACEBEE-134
Track 1 satellite(s)




NASA's NSSDC Master Catalog

Two Line Element Set (TLE):
1 49193U 21083H   25199.50679371  .00000060  00000-0  11943-3 0  9991
2 49193  87.9123  41.7401 0001743  81.8969 278.2360 13.18685094186021
Source of the keplerian elements: AFSPC